Find Starlink 36101

NORAD ID: 66867 Int'l Des: 2025-281 Owner: SPXS Country: US Constellation: starlink operational
LEOCIRCULAR

Current View

Loading 3D Globe...

About Starlink 36101

Description loading...

Upcoming Passes

Passes for default location (London). Set your location on the main map for personalized predictions.

Altitude History

Loading altitude history...

Two-Line Element Set

1 66867U 25281V 26146.05618491 .00015962 00000-0 58811-3 0 9993
2 66867 42.9980 266.9008 0001513 267.5203 92.5475 15.27590604 28004
Epoch: May 26, 2026 • Age: 16 hours

Current Status

Altitude 482.3 km
Velocity 7.63 km/s
Sub-Earth Point 7.58°N, 76.09°W
Launch Date Dec 2, 2025
Age 0.4 years
Type internet

Technical Details

Classification Payload
Mass 575.00 kg
Dry Mass 530.00 kg
Total Mass 575.00 kg
Length 0.30 m
Diameter 4.10 m
Span 29.00 m
Shape Box + pan
Manufacturer SPXS
Bus Type Starlink V2MO
Phase Status In Orbit
Owner/State SPXS/US

Most Searched